Vertical_Velocity
-7 8 -1 8 3 3 -19 -11 -1 -1 5 -2 1 -0 -1 2 1 -1 -3 -0 -1 1 -0 0 -4 1 1 -1 4 3 3 0 3 3 0 3 -1 -4 -1 2 -2 -3 -3 3 -3
-5 6 -0 16 11 5 11 28 12 4 -2 1 7 -2 2 1 0 2 0 -0 1 1 0 1 1 2 3 2 1 1 -1 2 -3 -1 -2 -1 1 -0 2 0 -6 -6 -0 -4 -3
8 -2 3 -2 -8 -0 27 3 6 3 3 -1 1 1 -2 1 1 1 1 -1 -2 -2 -4 -4 -4 -4 -4 -4 -3 -3 -5 -1 1 2 0 -1 2 -1 -5 -2 2 0 0 -2 -3
-8 -2 -3 -15 18 28 3 3 0 -4 -1 -5 -3 -2 -4 -1 -3 -3 -6 -5 1 1 2 1 -0 2 2 3 3 0 1 2 0 0 -0 -1 -1 -2 -4 -4 1 -1 -4 -2 -2
-9 -12 -16 -6 5 -9 -6 -1 -6 -6 4 6 3 -2 -0 -3 -3 -2 2 -1 -2 -3 -2 1 2 3 2 1 1 4 4 -0 2 5 5 3 -3 2 -8 -2 0 -2 -3 -2 1
5 -2 -6 -2 1 0 -1 -2 1 0 7 2 -3 -3 1 5 -1 -5 -5 -1 -1 -0 -0 -1 -0 -3 -3 -0 -0 -3 -1 1 1 2 -2 -1 -1 -2 6 6 -3 -2 -3 -2 1
-2 1 2 -3 -8 -6 -7 -7 -6 -5 -8 -5 -4 -0 5 -4 -3 -2 -1 2 -2 -0 -2 -2 -2 0 -3 -1 -1 2 -7 -1 5 -1 -4 1 -4 -7 -0 -0 -2 1 1 1 -2
-0 -2 -4 -5 -4 -0 3 -0 -2 -2 -2 -1 -2 -2 -7 -7 -12 -6 -2 -2 3 1 -0 -1 -2 -2 -1 -3 -1 -4 -2 -4 2 -1 2 2 -12 3 -1 -1 0 -0 1 0 -1
-3 -4 -5 -2 -1 -2 -4 -3 -1 -3 -5 -6 -5 -6 -4 0 2 5 1 -3 -5 -6 -4 -3 -2 -2 0 -4 -4 -1 -2 1 -12 4 6 8 -4 -2 7 3 1 2 1 -2 2
-3 -3 -2 -0 -0 -1 1 0 0 1 0 -2 1 -1 -0 -4 -4 -2 1 0 -2 -2 -3 -2 -3 -2 -1 -1 -2 -1 -3 -2 -7 -13 5 -2 -10 -9 -4 2 -1 -1 -1 1 -6
-2 -2 -3 -2 -1 -3 -1 1 -2 -5 1 -3 1 2 4 4 2 3 3 1 2 -0 -3 -5 -3 -2 0 2 1 -2 -1 2 -2 3 1 -6 -10 -5 -6 -5 -2 1 -2 -3 -4
-2 -2 -1 -2 -1 -1 -2 1 1 1 -1 2 -1 -1 -2 -3 0 1 -2 -2 -0 1 -1 -2 -5 -1 -3 -3 2 3 0 -5 -6 2 -3 5 -19 -5 -5 -7 -1 1 -2 -3 -3
-1 -0 0 0 -1 -0 0 -0 -1 -2 -2 -0 0 2 0 -1 -3 -3 -4 1 0 0 1 -1 -2 -3 1 3 0 5 -0 -2 1 -4 4 3 -19 -13 -3 -0 -2 -2 -6 -3 -1
-0 -0 0 1 -1 2 -0 -1 -0 -0 -1 1 -0 0 -1 1 1 -0 -0 -1 -3 -2 -2 -0 -2 -2 -2 2 0 -4 -0 -1 1 -0 -3 6 -12 -3 1 -2 -3 -4 -3 -3 -6
-1 -1 -0 -1 1 -2 0 -0 -0 -1 -8 -1 -2 -2 -1 -1 -0 -1 0 3 -0 1 -2 -0 0 1 -0 -4 -1 -4 1 3 -2 -0 -3 -3 4 -7 0 -4 -3 -0 -0 -4 -0
1 1 -2 -1 -0 -1 -1 -2 -1 -2 -4 -1 1 -1 0 -1 -1 -0 -3 -3 -1 1 -1 -0 -0 -2 0 1 -2 -5 -2 2 2 4 -1 2 -0 -11 -3 0 -0 -0 -3 -1 -0
-2 -1 1 -0 -0 -0 -1 -2 -3 -4 -1 -1 -2 -3 -1 -3 -2 -4 -3 -3 -3 -4 -1 1 1 -1 -2 -1 -1 -1 -5 -5 -5 -2 -8 5 4 -23 -2 -2 -1 -3 -1 0 0
0 -2 -1 0 -0 -2 -1 -3 -4 -1 -1 0 -1 -1 -2 -3 -2 -1 -2 -2 -1 -2 -2 -2 -7 -1 2 -0 -1 -1 -3 -1 1 -1 -5 3 -5 -7 0 -3 -1 -0 1 -3 -3
-1 -1 -2 -3 -2 -1 -1 -3 -2 -2 -2 -3 -1 0 -0 0 1 -2 -2 -2 -3 -3 -5 -1 -4 -0 -1 1 2 2 -2 -1 -0 4 4 -2 -3 -5 1 -2 -1 2 2 -0 0
-2 -1 1 -1 -1 -1 2 -3 -3 -1 -1 -2 -4 -4 -3 -2 -2 -1 -1 -1 -2 -1 -1 -4 -11 -0 1 1 0 0 2 1 2 -2 -2 -4 -3 -8 -2 1 1 1 -2 -3 -0
0 -4 -2 0 -0 -2 0 2 1 0 -1 -0 -0 -0 -1 -3 0 -1 -2 -1 1 1 2 3 -2 -2 -2 2 1 1 -0 0 -0 -1 -3 -1 -11 -0 -0 -7 -4 -4 -1 -0 -0
-2 -4 -2 -2 0 -3 -1 -1 -0 2 -0 -1 -2 1 1 2 -2 -3 -2 -2 -2 -2 -2 2 2 -6 1 -1 1 2 1 1 -1 -1 1 -0 -26 -1 -4 -3 -3 -2 -4 -1 -1
0 -2 -2 -2 2 1 -3 0 1 -2 3 0 -0 -1 0 1 -0 2 1 2 2 2 0 -1 -0 -5 -2 -2 0 -2 1 3 1 2 -5 -1 -16 -1 0 0 0 -2 1 -2 1
-2 -2 -2 0 -2 -1 -0 1 -3 -1 -4 1 -0 1 -2 -2 1 -4 -0 -1 2 2 2 -1 -1 -2 -8 2 7 3 2 3 6 2 -1 -21 -16 19 3 -1 1 0 -2 -2 1
-2 -4 1 -2 -2 0 -4 2 3 -1 -3 -3 -1 1 4 -1 -0 -4 -2 3 1 1 -1 3 -2 0 -2 -0 3 2 2 5 -4 5 -7 -2 -12 9 1 -2 0 -1 -1 -2 -4
0 -3 -5 -2 -1 1 -3 -7 0 0 4 2 -2 1 -1 -2 6 1 5 2 2 -5 3 -1 -6 -3 -13 2 -1 -6 4 3 1 1 -11 8 -27 4 4 -1 -0 2 -1 -2 -0
1 4 1 -3 -2 2 2 2 -6 -2 -0 2 2 -0 3 1 0 1 1 3 5 6 4 5 2 1 -13 0 1 -4 -4 1 2 -1 6 -5 -0 3 3 3 6 2 -0 1 -3
Height
3042 3039 3038 3037 3039 3041 3049 3058 3070 3074 3077 3082 3086 3091 3096 3100 3103 3104 3106 3108 3109 3110 3111 3112 3112 3113 3113 3113 3114 3114 3116 3114 3114 3114 3114 3115 3117 3120 3122 3122 3124 3126 3126 3127 3124
3046 3044 3044 3044 3044 3049 3053 3062 3072 3076 3081 3085 3089 3093 3096 3100 3103 3105 3107 3107 3108 3108 3109 3109 3111 3111 3111 3112 3112 3113 3112 3112 3111 3111 3112 3114 3115 3117 3119 3117 3120 3122 3122 3122 3122
3054 3051 3049 3048 3053 3057 3063 3071 3075 3080 3084 3087 3091 3094 3097 3100 3104 3105 3107 3109 3109 3110 3110 3110 3110 3111 3111 3111 3112 3111 3110 3111 3111 3110 3109 3111 3112 3110 3112 3112 3117 3116 3117 3116 3116
3061 3055 3056 3059 3064 3070 3075 3076 3082 3087 3090 3093 3096 3099 3102 3105 3109 3109 3110 3109 3109 3108 3108 3108 3109 3108 3109 3109 3109 3109 3107 3107 3107 3107 3105 3106 3106 3105 3105 3108 3110 3107 3109 3109 3110
3075 3071 3071 3073 3078 3083 3085 3087 3090 3092 3093 3096 3099 3102 3105 3106 3108 3108 3109 3109 3109 3109 3109 3108 3107 3106 3105 3105 3104 3103 3103 3103 3102 3101 3101 3100 3100 3101 3099 3103 3102 3101 3102 3102 3104
3088 3087 3083 3084 3086 3088 3090 3091 3092 3094 3097 3100 3103 3105 3107 3109 3110 3111 3110 3110 3110 3109 3107 3105 3104 3103 3103 3104 3103 3100 3099 3098 3097 3096 3095 3093 3094 3092 3097 3095 3094 3094 3095 3096 3096
3097 3099 3100 3100 3100 3099 3098 3097 3098 3100 3102 3103 3105 3107 3108 3110 3110 3110 3108 3108 3108 3106 3104 3103 3102 3102 3101 3101 3099 3097 3094 3093 3093 3092 3089 3089 3087 3087 3090 3088 3087 3089 3089 3090 3089
3105 3103 3103 3105 3106 3107 3108 3108 3107 3107 3107 3107 3108 3110 3111 3112 3111 3109 3108 3106 3105 3104 3103 3101 3100 3099 3098 3098 3096 3095 3092 3089 3089 3087 3086 3085 3080 3085 3084 3083 3083 3083 3084 3084 3082
3115 3115 3114 3111 3110 3110 3110 3112 3113 3114 3114 3114 3114 3113 3111 3110 3109 3108 3108 3108 3105 3102 3100 3099 3098 3097 3097 3095 3095 3093 3090 3087 3084 3085 3083 3082 3077 3080 3080 3079 3078 3078 3078 3078 3078
3122 3119 3117 3116 3116 3116 3115 3115 3115 3114 3113 3113 3113 3114 3114 3113 3111 3109 3106 3103 3101 3100 3099 3099 3097 3096 3096 3095 3094 3091 3088 3085 3082 3082 3079 3076 3072 3072 3074 3073 3073 3073 3073 3073 3074
3129 3127 3125 3123 3122 3121 3120 3120 3122 3120 3116 3115 3115 3113 3112 3112 3109 3107 3105 3101 3100 3098 3097 3096 3096 3095 3094 3093 3091 3088 3085 3081 3078 3077 3074 3070 3066 3065 3066 3066 3066 3067 3067 3067 3067
3134 3132 3129 3127 3125 3124 3122 3122 3121 3121 3118 3116 3114 3113 3111 3110 3110 3107 3103 3102 3100 3098 3096 3097 3095 3094 3092 3091 3088 3085 3081 3077 3073 3072 3069 3065 3058 3058 3058 3058 3061 3061 3061 3060 3063
3137 3134 3132 3129 3127 3125 3123 3123 3121 3119 3118 3117 3115 3113 3112 3111 3108 3107 3105 3102 3101 3099 3096 3094 3094 3092 3090 3087 3085 3081 3078 3075 3072 3066 3064 3060 3050 3050 3049 3050 3051 3052 3055 3058 3058
3140 3137 3134 3131 3130 3126 3124 3122 3120 3119 3119 3120 3117 3115 3114 3111 3110 3107 3105 3105 3100 3098 3095 3093 3091 3089 3088 3085 3083 3078 3074 3073 3069 3066 3062 3060 3052 3043 3043 3043 3044 3048 3052 3054 3053
3143 3140 3137 3134 3132 3129 3127 3122 3120 3120 3121 3123 3119 3117 3113 3114 3112 3108 3106 3103 3100 3097 3096 3094 3090 3087 3085 3083 3081 3078 3074 3071 3067 3065 3062 3056 3058 3040 3041 3041 3043 3046 3049 3049 3048
3144 3141 3139 3137 3133 3131 3127 3124 3122 3123 3121 3122 3120 3117 3116 3113 3111 3109 3106 3104 3099 3095 3092 3090 3087 3085 3083 3081 3078 3076 3073 3068 3064 3063 3061 3054 3056 3040 3040 3041 3043 3045 3046 3046 3044
3144 3141 3139 3136 3135 3132 3128 3126 3126 3124 3127 3124 3120 3117 3115 3113 3110 3108 3105 3103 3101 3096 3091 3087 3084 3083 3081 3080 3077 3075 3073 3069 3068 3064 3059 3053 3052 3040 3040 3040 3041 3043 3044 3043 3040
3143 3141 3139 3136 3134 3132 3130 3128 3126 3126 3124 3122 3119 3116 3115 3112 3109 3107 3105 3103 3101 3099 3093 3088 3083 3082 3080 3079 3077 3074 3074 3075 3076 3072 3059 3052 3046 3038 3038 3038 3039 3041 3041 3039 3037
3143 3140 3138 3135 3133 3131 3130 3128 3127 3126 3124 3121 3118 3115 3113 3112 3110 3107 3104 3102 3101 3099 3099 3093 3084 3080 3079 3077 3077 3074 3074 3075 3073 3068 3064 3048 3041 3037 3035 3037 3038 3039 3038 3037 3035
3142 3139 3136 3134 3132 3130 3129 3127 3125 3123 3122 3120 3118 3116 3114 3112 3110 3106 3103 3101 3099 3097 3095 3092 3085 3079 3078 3076 3075 3074 3074 3073 3072 3072 3065 3046 3040 3036 3036 3036 3037 3036 3035 3034 3032
3140 3136 3134 3132 3130 3129 3128 3126 3123 3122 3120 3119 3116 3114 3112 3109 3107 3104 3103 3101 3098 3096 3092 3088 3086 3081 3077 3074 3072 3072 3071 3070 3070 3069 3069 3065 3037 3034 3034 3034 3034 3033 3032 3031 3030
3137 3135 3132 3130 3130 3126 3126 3124 3123 3120 3118 3116 3115 3112 3111 3108 3104 3102 3101 3099 3097 3094 3091 3088 3083 3075 3072 3071 3070 3068 3068 3068 3068 3066 3064 3062 3039 3033 3033 3032 3030 3029 3028 3027 3026
3134 3133 3131 3128 3126 3124 3123 3122 3119 3118 3117 3114 3113 3111 3109 3107 3105 3099 3097 3096 3093 3091 3089 3086 3082 3076 3070 3070 3067 3065 3064 3063 3063 3062 3057 3058 3033 3029 3029 3029 3027 3025 3024 3023 3021
3132 3130 3128 3125 3124 3121 3119 3118 3117 3115 3114 3112 3110 3108 3105 3104 3104 3100 3096 3094 3092 3089 3086 3083 3078 3076 3072 3067 3064 3060 3059 3059 3059 3055 3047 3035 3027 3028 3028 3025 3023 3020 3018 3017 3016
3129 3128 3126 3124 3121 3119 3117 3116 3113 3111 3110 3109 3106 3105 3103 3099 3097 3094 3094 3090 3088 3084 3082 3079 3070 3066 3061 3057 3054 3049 3048 3049 3046 3045 3043 3026 3024 3023 3023 3021 3019 3017 3014 3012 3010
3126 3123 3121 3119 3118 3117 3114 3113 3111 3109 3107 3105 3103 3100 3099 3096 3096 3091 3088 3086 3082 3079 3076 3073 3068 3062 3049 3049 3046 3040 3040 3038 3036 3034 3028 3026 3020 3022 3019 3017 3015 3013 3010 3008 3006
3120 3117 3114 3114 3112 3111 3110 3107 3105 3104 3103 3100 3099 3096 3094 3092 3088 3086 3082 3081 3078 3073 3072 3069 3064 3061 3050 3046 3042 3032 3028 3029 3027 3024 3024 3019 3019 3019 3017 3014 3012 3009 3006 3004 3002